Location: Engelmannsreuth
(49.8125°N, 11.6497°E)
Time: 10:24:48
(UTC+00:00)

ATLAS 2AS CENTAUR R/B - Pass Details

Date: 17 February 2020
Orbit: 929 x 1283 km, 63.7° (Epoch: 03 April)

Event Time Altitude Azimuth Distance (km) Brightness Sun altitude
Exits shadow 02:23:02 31° 345° (NNW) 2,080 4.2 -38.0°
Maximum altitude 02:23:21 31° 350° (N) 2,074 4.2 -38.0°
Drops below altitude 10° 02:30:03 10° 50° (NE) 3,173 5.9 -37.0°
Sets 02:33:11 0° 61° (ENE) 4,090 6.7 -36.6°
